This is the latest recevied weather packets stored in our database for station/object IW2LSY-11. If no packets are shown the sender has not sent any weather packets the latest 10 day(s).
| Time | Temp. | Humidity | Pressure | Rain* | Wind** | Luminosity | Snow |
|---|---|---|---|---|---|---|---|
| 1777786814 | 15° C | 55% | 1020.9 hPa | - | - | 459 W/m² | - |
| 1777786214 | 15° C | 57% | 1021 hPa | - | - | 460 W/m² | - |
| 1777785615 | 13.89° C | 60% | 1020.9 hPa | - | - | 460 W/m² | - |
| 1777785004 | 13.33° C | 63% | 1021 hPa | - | - | 460 W/m² | - |
| 1777784404 | 11.67° C | 69% | 1021.1 hPa | - | - | 460 W/m² | - |
| 1777783804 | 10.56° C | 76% | 1021.2 hPa | - | - | 460 W/m² | - |
| 1777783204 | 10.56° C | 76% | 1021.2 hPa | - | - | 461 W/m² | - |
| 1777782605 | 10.56° C | 77% | 1021.1 hPa | - | - | 462 W/m² | - |
| 1777782004 | 10° C | 80% | 1021.1 hPa | - | - | 463 W/m² | - |
| 1777781405 | 10° C | 81% | 1021.1 hPa | - | - | 464 W/m² | - |
| 1777780805 | 8.89° C | 86% | 1021.1 hPa | - | - | 465 W/m² | - |
| 1777780205 | 9.44° C | 84% | 1021.2 hPa | - | - | 465 W/m² | - |
| 1777779605 | 10° C | 81% | 1021.3 hPa | - | - | 466 W/m² | - |
| 1777779006 | 10.56° C | 77% | 1021.3 hPa | - | - | 466 W/m² | - |
| 1777778406 | 10° C | 81% | 1021.3 hPa | - | - | 466 W/m² | - |
| 1777777806 | 10.56° C | 80% | 1021.4 hPa | - | - | 467 W/m² | - |
| 1777777206 | 10.56° C | 79% | 1021.4 hPa | - | - | 468 W/m² | - |
| 1777776607 | 10° C | 81% | 1021.5 hPa | - | - | 467 W/m² | - |
| 1777776007 | 10° C | 82% | 1021.6 hPa | - | - | 468 W/m² | - |
| 1777775407 | 10° C | 81% | 1021.6 hPa | - | - | 468 W/m² | - |
| 1777774807 | 10.56° C | 79% | 1021.6 hPa | - | - | 469 W/m² | - |
| 1777774208 | 10° C | 82% | 1021.6 hPa | - | - | 469 W/m² | - |
| 1777773608 | 10.56° C | 81% | 1021.6 hPa | - | - | 470 W/m² | - |
| 1777773008 | 11.11° C | 78% | 1021.6 hPa | - | - | 470 W/m² | - |
| 1777772408 | 10.56° C | 78% | 1021.6 hPa | - | - | 470 W/m² | - |
* Rain since midnight (hover to see other rain measurements)
** Current wind speed in m/s (hover to see current wind gust speed)